Temperature
9 11 12 12 11 11 11 11 11 11 10 9 10 11 12 12 11 11 11 11 10 10 9 9 9 9 9 9 9 9 9 9 8 8 8 9 9 9 9 9 9 9 9 9
10 11 10 10 9 9 10 10 11 11 9 9 10 10 12 12 11 10 10 10 10 9 9 9 8 8 8 8 8 8 8 8 8 8 8 8 8 8 8 8 8 8 8 9
11 10 9 9 9 9 10 10 11 10 10 9 8 12 13 11 10 9 9 9 9 9 9 8 8 8 8 8 8 8 8 8 8 7 7 8 8 8 8 8 8 8 8 8
10 9 8 9 9 9 10 10 9 8 9 10 9 11 14 12 11 11 10 10 9 9 8 8 8 8 8 8 8 8 8 8 7 7 7 7 7 7 7 7 7 7 8 7
10 8 8 9 9 9 9 8 8 8 8 8 9 8 13 11 11 11 11 10 9 8 8 8 8 7 7 7 8 8 7 7 7 7 7 7 7 7 7 7 7 7 7 7
8 7 8 9 8 8 8 8 7 7 8 8 9 9 12 13 12 12 11 10 9 8 8 8 7 7 7 7 7 7 7 7 7 6 6 6 6 6 6 6 6 6 7 7
8 8 7 7 8 7 8 9 9 9 9 10 8 8 11 12 11 11 10 10 9 8 8 7 7 7 7 6 7 7 7 6 6 6 6 6 6 6 6 6 6 6 6 6
9 10 8 7 8 8 8 8 9 10 11 11 8 9 11 11 10 9 8 8 8 7 7 7 7 6 6 6 6 6 6 6 6 6 6 6 6 6 6 5 5 5 6 6
9 9 7 6 7 8 8 8 8 8 7 7 10 10 10 10 10 9 9 8 8 8 7 7 6 6 6 6 5 5 5 6 6 5 5 5 5 5 5 5 5 5 5 5
8 7 7 6 6 6 7 8 7 7 7 9 10 10 11 10 10 10 10 9 8 7 7 6 6 6 5 5 5 5 5 5 5 5 5 5 5 5 5 5 5 5 5 5
7 6 6 6 6 7 6 6 7 7 7 8 9 11 11 10 10 10 10 9 8 7 6 6 6 5 5 5 5 5 5 5 5 5 5 4 4 4 4 4 5 5 5 5
6 6 7 7 6 6 7 7 7 6 6 6 7 10 11 10 10 9 9 8 7 6 6 5 5 5 4 4 4 4 4 4 4 4 4 4 4 4 4 4 4 4 4 4
5 4 6 7 5 4 4 5 5 6 6 6 6 9 10 10 9 8 8 8 7 6 5 5 4 4 4 4 4 4 4 4 4 4 4 4 4 4 4 4 4 4 4 4
5 4 6 8 9 6 4 4 4 4 5 6 7 9 10 10 10 9 8 7 6 6 5 4 4 4 3 3 3 3 3 3 3 3 3 3 3 3 3 3 3 3 4 4
4 4 5 6 7 6 5 5 4 4 5 6 7 8 9 9 9 9 8 7 6 5 4 4 4 3 3 3 3 3 3 3 3 3 3 3 3 3 3 3 3 3 3 3
4 4 4 5 5 5 5 5 5 5 5 5 6 7 9 9 8 7 7 6 5 5 4 4 3 3 3 2 2 2 2 2 2 2 3 2 2 2 2 2 2 3 3 3
3 3 4 5 6 4 5 6 6 6 6 6 6 7 8 8 8 7 6 5 4 4 3 3 3 3 2 2 2 2 2 2 2 2 2 2 2 2 2 2 2 2 3 3
3 3 3 4 4 4 7 8 7 7 7 7 7 7 7 7 6 5 4 4 4 3 3 3 3 2 2 2 2 2 2 1 1 1 1 2 2 2 2 2 2 2 2 3
3 3 3 3 4 5 7 6 6 5 6 7 6 6 6 5 5 5 4 3 3 2 2 2 2 2 1 1 1 1 1 1 1 1 1 1 1 1 1 2 2 2 2 3
2 2 3 3 3 5 7 6 5 5 5 6 5 5 5 4 4 6 4 2 2 2 2 2 2 1 1 1 1 1 1 1 0 1 1 1 1 1 1 1 1 2 2 2
2 2 2 3 3 5 6 4 3 4 6 5 4 3 3 3 4 3 2 2 2 1 1 1 1 1 1 1 1 0 0 0 0 0 0 0 0 0 1 1 1 1 2 2
3 3 2 3 3 4 4 3 4 5 4 3 3 2 2 2 2 1 1 1 1 1 1 1 0 0 0 0 -0 -0 -0 -0 -0 -0 -0 -0 0 0 1 1 1 1 1 2
3 4 4 4 5 5 3 3 3 2 2 2 2 1 1 1 1 1 0 0 0 -0 -0 -0 -0 -0 -0 -0 -1 -1 -1 -1 -1 -1 -1 -1 -0 -0 0 0 0 1 1 1
2 2 2 2 3 3 2 2 1 1 1 1 1 1 0 0 -0 -0 -0 -0 -1 -1 -1 -1 -1 -1 -1 -1 -1 -1 -1 -1 -1 -1 -1 -1 -1 -1 -0 -0 0 0 0 1
2 1 1 2 3 2 2 1 1 1 0 0 -0 -0 -1 -1 -1 -1 -1 -1 -1 -2 -2 -2 -2 -2 -2 -2 -2 -2 -2 -2 -2 -2 -2 -2 -1 -1 -1 -0 -0 -0 -0 0
1 1 1 2 2 2 2 1 0 -0 -1 -1 -1 -1 -1 -2 -2 -2 -2 -2 -2 -2 -2 -2 -2 -2 -2 -2 -2 -2 -3 -3 -3 -3 -2 -2 -2 -2 -2 -1 -1 -0 -0 0
Wind_Speed
1 4 5 4 4 2 3 6 10 9 7 8 14 20 21 16 12 12 10 8 7 6 6 5 6 6 6 5 6 6 6 6 5 4 5 5 6 6 6 6 7 8 8 9
4 6 4 2 3 4 5 8 10 8 4 7 14 21 18 11 8 8 8 7 6 5 5 5 5 5 6 6 6 7 6 6 6 5 5 5 6 7 7 6 8 8 8 8
6 1 4 4 4 5 7 8 8 9 10 6 10 11 5 3 4 4 5 5 4 5 5 5 5 5 6 7 7 7 8 8 7 7 6 5 6 7 7 7 7 8 9 9
5 3 5 6 6 6 7 4 7 8 8 5 4 8 6 3 5 4 4 4 3 3 4 5 6 7 7 8 8 9 9 9 9 8 7 8 8 9 10 8 8 9 10 10
4 5 6 7 5 6 3 2 5 7 7 7 5 6 8 3 5 5 4 4 3 3 4 6 7 8 9 9 9 9 10 10 10 9 9 9 10 10 9 9 10 10 9 10
4 3 4 4 1 4 2 2 2 2 3 5 5 6 7 4 4 4 4 3 4 4 5 7 8 9 9 9 9 10 10 11 11 11 11 11 12 12 12 11 10 9 8 9
4 5 4 3 3 4 3 3 3 3 4 4 3 6 9 5 4 5 5 5 5 6 6 8 9 10 10 11 10 10 11 12 12 12 12 12 12 13 13 12 11 10 9 9
5 6 7 6 6 5 5 4 3 5 6 5 4 8 7 4 5 6 7 7 7 8 8 9 10 11 11 12 11 11 12 12 12 12 12 12 12 10 10 12 11 11 10 11
7 4 3 4 3 5 5 5 1 3 4 7 8 8 10 8 8 8 8 8 9 9 9 10 11 12 12 13 12 12 12 12 12 12 11 11 11 11 11 13 12 11 11 11
5 4 4 3 3 2 3 4 4 4 4 7 9 9 7 5 6 6 8 9 10 10 10 12 12 13 13 13 12 12 12 12 12 12 11 10 11 12 12 12 13 13 13 12
5 5 4 5 9 9 7 6 6 5 5 6 9 8 3 6 6 7 9 10 11 12 12 13 13 13 13 13 12 12 12 12 12 12 11 11 12 12 12 13 13 12 12 12
7 5 6 7 3 4 9 9 10 7 7 7 9 11 4 7 8 9 11 13 13 13 14 15 14 13 12 12 12 11 11 12 12 12 12 12 12 12 12 13 13 12 13 12
8 6 4 4 4 5 6 8 10 8 6 10 11 12 4 7 11 13 15 16 15 15 16 15 13 12 12 12 12 12 12 12 12 12 12 12 12 12 13 13 13 12 12 12
8 8 11 13 7 5 7 10 12 11 10 13 19 23 21 19 20 19 18 17 16 16 15 14 13 12 12 12 12 12 13 12 12 12 12 12 12 13 13 13 12 12 12 12
7 9 12 17 15 11 13 16 16 18 19 17 23 25 26 24 23 21 18 17 16 16 15 14 13 12 12 12 12 12 13 12 12 12 12 12 12 13 12 12 12 11 11 11
7 7 9 14 15 16 19 21 21 22 22 25 28 30 26 23 20 18 17 16 16 15 14 14 13 12 12 12 13 12 13 12 12 11 11 12 12 12 11 11 11 11 11 10
7 6 7 12 12 11 17 20 21 19 20 19 23 25 21 20 18 17 16 15 14 14 13 13 12 11 11 12 12 12 12 11 11 11 11 12 11 11 11 11 11 11 11 10
9 9 7 8 8 16 12 7 13 18 21 21 20 21 19 18 16 14 13 13 13 12 12 12 12 11 11 11 11 11 10 10 10 11 11 11 11 11 11 11 11 11 10 10
15 12 8 7 12 16 14 8 8 12 16 16 18 19 17 14 14 13 10 9 10 11 11 11 11 11 11 10 10 9 10 10 11 11 12 12 12 12 11 12 11 10 9 10
10 11 10 9 11 12 10 3 4 5 12 8 10 12 11 9 11 11 8 9 11 11 10 10 11 11 10 10 9 9 10 11 11 12 12 12 12 12 12 12 11 10 9 9
7 9 13 15 14 12 6 4 6 7 7 1 4 7 7 8 10 11 12 12 12 12 11 11 11 10 11 10 9 10 11 11 12 12 12 12 12 11 11 11 10 9 8 8
11 9 11 11 12 12 4 7 8 7 4 3 5 8 10 12 13 13 13 13 13 12 12 11 11 11 11 10 10 11 11 11 11 11 12 12 12 11 10 10 10 9 8 8
11 10 7 9 10 5 5 6 6 5 7 8 9 11 12 13 14 14 14 13 13 13 12 11 11 12 12 10 10 11 12 11 11 12 12 12 12 11 10 10 9 8 7 6
8 6 7 9 12 10 10 10 10 9 10 11 12 12 12 13 14 14 13 13 13 13 12 11 11 12 12 12 11 11 12 11 11 12 12 11 11 11 10 8 7 6 7 7
10 7 9 14 13 11 11 11 10 11 12 12 12 12 12 13 14 14 13 13 12 12 11 11 11 12 13 12 12 11 11 11 11 12 11 10 9 9 9 9 7 8 8 8
11 11 12 13 11 9 10 9 10 11 11 11 12 12 12 11 13 13 12 12 11 12 11 11 12 13 13 12 12 11 11 10 11 10 10 9 8 8 7 8 8 8 8 9
Wind_Direction
170 209 214 213 223 271 271 272 281 286 301 292 278 282 288 290 275 268 266 261 259 267 281 290 291 288 283 281 283 283 285 293 295 296 302 304 296 284 274 270 267 265 264 258
198 224 222 189 201 229 250 273 283 292 302 295 292 288 287 281 264 265 263 256 256 265 278 290 292 290 285 282 281 280 278 281 284 285 288 288 288 277 270 270 266 264 264 259
223 159 160 190 210 237 256 260 283 298 311 279 301 289 254 228 253 258 253 252 252 262 279 289 296 294 291 289 284 278 275 276 278 283 286 288 292 283 269 267 267 264 264 260
235 209 201 219 232 238 269 263 274 289 301 296 324 300 279 259 268 244 237 232 241 257 287 298 302 303 298 295 288 278 276 275 276 276 276 279 280 283 280 275 269 267 263 259
219 199 209 229 241 226 263 310 279 279 275 284 247 256 277 243 246 236 234 235 253 271 292 301 304 303 300 299 291 279 276 275 274 271 270 270 272 277 279 273 272 272 266 259
246 218 232 238 244 213 212 266 265 229 243 258 233 235 274 228 228 230 229 252 272 278 291 301 304 301 300 301 296 284 278 275 273 270 268 266 270 275 278 275 274 274 269 261
230 215 204 193 183 172 206 256 277 259 239 248 171 242 258 265 253 255 257 270 284 289 290 301 307 304 302 300 297 291 279 275 273 271 268 267 268 272 271 271 269 272 268 262
233 226 191 195 210 198 201 223 248 277 279 285 239 248 260 280 271 268 269 273 281 284 288 296 301 300 299 299 298 295 284 276 275 274 270 268 268 267 268 269 268 266 262 258
216 225 139 191 208 197 185 210 268 266 284 277 259 262 280 263 258 256 260 268 278 285 289 295 301 300 298 298 296 294 291 280 278 277 275 271 268 266 269 271 268 265 261 258
209 226 192 166 178 217 248 176 172 210 262 270 268 266 260 244 245 250 265 273 280 288 292 300 302 302 300 298 296 295 292 287 283 281 280 277 274 271 270 272 267 266 265 258
199 212 193 190 208 204 179 190 211 222 248 263 279 274 243 250 264 278 284 287 292 294 298 303 304 303 301 298 297 294 291 289 287 285 283 282 280 279 276 275 269 269 270 261
192 210 234 225 213 256 218 216 202 220 235 238 267 275 271 262 279 287 291 295 295 294 300 303 302 300 298 296 296 296 294 291 289 288 285 283 283 282 279 278 276 273 273 266
165 187 227 225 205 197 220 222 222 234 250 243 253 268 261 271 281 286 293 298 299 297 300 301 298 298 298 299 300 301 300 296 292 291 288 283 283 284 282 280 280 275 273 271
175 198 223 243 260 195 216 221 216 217 235 250 250 267 277 282 288 293 296 299 299 299 300 297 297 298 298 299 301 302 303 302 297 293 288 286 286 286 285 283 284 277 273 270
194 226 236 252 259 246 244 240 226 224 235 249 263 270 277 284 290 293 296 298 299 299 298 296 296 298 300 302 303 304 304 304 300 293 289 289 290 288 287 286 285 279 273 269
206 236 241 252 250 251 255 251 243 240 244 250 262 269 274 282 287 289 292 295 295 297 298 298 297 297 298 301 303 303 304 306 305 297 293 293 293 292 290 289 287 281 274 271
201 216 233 255 256 260 254 247 241 241 239 244 255 265 278 283 284 286 291 293 294 297 298 299 298 296 298 300 301 301 303 305 306 304 300 297 297 296 296 293 289 282 275 272
209 219 237 256 250 248 259 249 238 244 248 246 253 265 274 281 288 289 287 288 292 296 298 298 298 298 298 298 297 299 301 303 305 305 306 306 302 300 300 297 290 287 278 271
217 218 229 234 249 262 264 248 226 238 257 250 254 263 272 283 288 281 283 288 291 296 297 298 299 298 297 297 298 297 300 305 307 308 308 308 307 304 300 297 294 293 287 279
214 217 229 234 246 255 269 227 195 229 262 254 249 259 272 283 284 292 312 305 296 296 296 298 300 298 296 297 298 294 298 302 305 305 305 306 305 304 299 297 297 296 293 283
201 214 227 239 249 259 264 159 159 232 279 303 235 259 273 272 279 300 303 299 295 293 295 298 299 297 296 298 297 290 295 298 302 303 302 303 304 305 302 301 298 298 298 291
213 216 223 231 244 252 172 161 207 264 320 282 273 279 280 280 287 292 293 294 295 295 296 298 297 295 296 298 296 289 293 298 301 302 303 304 305 306 304 304 302 300 298 289
222 222 226 222 243 286 186 221 258 294 283 284 286 286 284 284 287 290 291 291 292 294 295 296 294 294 295 294 293 288 293 300 301 301 302 304 305 305 304 302 301 303 299 284
238 241 243 256 261 265 259 267 270 274 277 284 284 284 283 283 287 289 290 291 292 294 294 295 295 293 294 296 295 290 293 298 299 299 301 302 302 303 304 301 297 299 299 289
247 225 240 255 266 276 265 261 268 274 277 282 284 283 281 283 285 287 289 290 291 293 294 294 292 292 294 297 296 297 297 297 296 297 298 299 297 299 300 297 292 290 285 282
241 237 244 259 267 265 272 279 280 280 281 286 288 287 285 282 284 287 286 288 291 292 293 292 292 293 294 295 295 297 298 295 293 293 295 295 296 296 296 299 300 291 283 290
Height
1498 1496 1491 1490 1493 1493 1493 1491 1488 1486 1488 1489 1479 1471 1465 1465 1466 1465 1464 1464 1464 1464 1464 1463 1462 1461 1460 1459 1458 1457 1456 1455 1454 1453 1452 1450 1449 1447 1446 1446 1446 1445 1446 1446
1495 1492 1492 1495 1496 1496 1494 1492 1486 1484 1488 1487 1477 1467 1460 1459 1460 1461 1460 1460 1460 1461 1460 1459 1458 1457 1456 1455 1454 1453 1452 1451 1450 1449 1448 1446 1444 1442 1441 1440 1440 1440 1439 1439
1488 1491 1494 1495 1494 1493 1490 1488 1484 1485 1485 1483 1481 1458 1453 1456 1458 1458 1458 1457 1457 1457 1457 1456 1455 1454 1453 1452 1450 1449 1448 1447 1446 1445 1443 1442 1440 1438 1437 1435 1434 1434 1433 1433
1490 1492 1494 1492 1490 1490 1484 1486 1488 1488 1485 1475 1481 1463 1446 1451 1453 1454 1455 1454 1454 1455 1454 1453 1452 1451 1450 1448 1447 1445 1444 1443 1442 1440 1438 1437 1435 1433 1431 1430 1428 1427 1427 1426
1486 1491 1491 1489 1487 1489 1486 1490 1489 1488 1485 1483 1477 1476 1447 1450 1449 1449 1450 1451 1452 1452 1451 1450 1449 1448 1446 1444 1443 1441 1440 1438 1437 1435 1433 1432 1430 1428 1426 1424 1422 1421 1420 1419
1488 1491 1490 1488 1489 1490 1491 1490 1489 1488 1484 1480 1471 1471 1445 1441 1444 1445 1448 1449 1449 1450 1449 1448 1446 1444 1442 1440 1438 1436 1434 1433 1431 1430 1428 1426 1424 1422 1420 1418 1416 1414 1413 1412
1484 1486 1488 1489 1488 1490 1489 1485 1478 1473 1472 1462 1471 1470 1449 1441 1445 1446 1447 1448 1448 1447 1446 1445 1443 1440 1438 1436 1433 1431 1429 1427 1425 1424 1422 1420 1418 1416 1414 1412 1410 1407 1406 1405
1477 1473 1482 1485 1483 1483 1484 1482 1478 1471 1458 1453 1465 1459 1442 1442 1445 1446 1447 1446 1446 1444 1443 1442 1439 1436 1434 1431 1428 1425 1423 1421 1419 1417 1415 1413 1412 1410 1408 1406 1404 1401 1400 1398
1473 1473 1482 1484 1484 1483 1483 1480 1481 1480 1479 1475 1452 1446 1442 1440 1441 1442 1443 1443 1442 1441 1439 1438 1435 1432 1429 1426 1423 1420 1417 1415 1413 1411 1408 1406 1405 1403 1401 1399 1397 1394 1393 1391
1474 1476 1478 1483 1485 1485 1483 1480 1484 1481 1474 1459 1444 1442 1435 1434 1435 1437 1438 1438 1437 1437 1435 1433 1431 1427 1424 1420 1417 1414 1411 1409 1407 1405 1402 1400 1398 1396 1394 1392 1389 1387 1385 1383
1476 1477 1477 1480 1477 1474 1482 1483 1478 1475 1474 1464 1444 1432 1429 1432 1433 1434 1435 1435 1434 1433 1431 1428 1426 1423 1419 1415 1412 1409 1406 1404 1401 1399 1396 1394 1391 1389 1387 1384 1382 1379 1377 1375
1473 1474 1470 1470 1474 1475 1473 1471 1472 1473 1472 1471 1455 1436 1429 1431 1432 1433 1433 1432 1431 1429 1427 1424 1421 1417 1413 1410 1407 1404 1401 1398 1395 1393 1390 1387 1384 1382 1380 1377 1374 1372 1370 1368
1471 1475 1469 1463 1473 1477 1475 1472 1471 1470 1467 1461 1455 1434 1428 1430 1430 1430 1429 1428 1426 1425 1422 1419 1416 1412 1409 1405 1402 1398 1395 1392 1390 1387 1384 1381 1378 1376 1373 1369 1366 1364 1362 1360
1466 1467 1460 1449 1445 1459 1467 1467 1468 1469 1463 1451 1441 1428 1424 1425 1424 1424 1424 1423 1422 1420 1417 1414 1410 1407 1403 1400 1397 1393 1390 1387 1384 1381 1377 1375 1372 1369 1366 1363 1360 1357 1355 1353
1462 1459 1456 1450 1450 1455 1455 1455 1459 1460 1453 1446 1431 1426 1420 1420 1420 1419 1418 1417 1416 1414 1411 1408 1405 1401 1398 1395 1392 1388 1384 1381 1378 1375 1371 1368 1365 1363 1359 1356 1353 1351 1348 1346
1457 1455 1453 1450 1447 1449 1447 1443 1444 1445 1444 1439 1432 1422 1417 1417 1417 1415 1414 1413 1411 1409 1406 1403 1399 1396 1393 1390 1387 1383 1379 1376 1372 1369 1366 1363 1359 1356 1353 1350 1347 1344 1342 1340
1453 1453 1450 1440 1440 1444 1436 1427 1429 1429 1427 1427 1422 1414 1412 1412 1411 1410 1410 1408 1406 1404 1401 1398 1395 1391 1389 1386 1382 1379 1375 1372 1368 1364 1361 1358 1354 1350 1347 1344 1341 1338 1336 1334
1447 1448 1445 1439 1442 1434 1413 1414 1416 1416 1415 1415 1413 1410 1410 1409 1408 1407 1406 1404 1401 1399 1397 1394 1391 1387 1384 1381 1378 1374 1371 1368 1364 1360 1357 1353 1350 1345 1342 1339 1335 1332 1330 1327
1438 1441 1439 1435 1428 1414 1408 1411 1413 1413 1407 1407 1407 1405 1406 1406 1404 1401 1400 1399 1397 1395 1393 1390 1387 1384 1380 1377 1374 1370 1367 1364 1360 1357 1353 1349 1345 1341 1337 1334 1330 1327 1324 1322
1433 1435 1435 1429 1423 1411 1399 1406 1409 1411 1404 1401 1402 1402 1403 1403 1400 1394 1395 1394 1392 1391 1388 1385 1382 1380 1376 1373 1370 1367 1363 1360 1356 1353 1349 1345 1341 1337 1333 1330 1326 1323 1321 1318
1429 1429 1427 1422 1416 1403 1401 1407 1409 1408 1398 1400 1400 1401 1401 1400 1398 1395 1393 1391 1388 1386 1383 1381 1378 1375 1372 1369 1366 1363 1359 1356 1352 1349 1345 1341 1337 1334 1330 1327 1323 1320 1317 1315
1414 1416 1416 1414 1412 1402 1400 1405 1403 1398 1399 1399 1398 1398 1398 1396 1393 1391 1389 1386 1384 1381 1378 1376 1373 1370 1367 1365 1362 1358 1355 1352 1348 1344 1341 1337 1333 1330 1327 1324 1321 1318 1315 1313
1406 1404 1401 1402 1397 1395 1398 1398 1398 1398 1398 1397 1396 1394 1393 1391 1388 1386 1384 1381 1379 1376 1373 1370 1368 1364 1362 1360 1357 1353 1350 1347 1343 1339 1336 1333 1329 1326 1323 1321 1318 1315 1313 1311
1401 1403 1402 1399 1393 1394 1395 1395 1395 1395 1394 1392 1391 1390 1388 1386 1383 1381 1378 1376 1373 1370 1368 1365 1362 1359 1356 1354 1351 1348 1345 1341 1338 1335 1332 1328 1325 1322 1320 1317 1315 1312 1310 1309
1394 1398 1396 1393 1390 1391 1390 1391 1391 1390 1389 1387 1386 1385 1383 1381 1378 1376 1373 1371 1368 1365 1362 1360 1357 1353 1350 1348 1345 1342 1339 1336 1333 1330 1327 1324 1321 1318 1316 1314 1312 1310 1308 1307
1390 1391 1390 1385 1386 1387 1385 1386 1386 1385 1384 1382 1381 1378 1377 1375 1372 1370 1367 1365 1362 1360 1357 1354 1351 1348 1345 1342 1339 1337 1334 1331 1328 1325 1322 1320 1317 1315 1312 1310 1308 1306 1305 1304